COSMOS 2386

导读 | 豆包AI

COSMOS 2386是由独联体(CIS)于2001年12月28日08:00发射升空的卫星,隶属于苏联/俄罗斯经典的“宇宙”(Cosmos)卫星系列。宇宙系列卫星多承担军事侦察、技术试验等任务,不少卫星任务细节未公开。该卫星进入预定轨道后,长期服务于空间技术验证与相关领域观测任务,是独联体空间部署体系中的一员,延续了宇宙系列卫星的航天应用使命,在近地轨道开展既定工作。

Basic Information
目录编号:
27057
目录名称:
COSMOS 2386
国际标识:
2001-058C
轨道中心:
EARTH
卫星名称:
COSMOS 2386
卫星全名:
--
卫星状态:
在轨 (已飞行8842 天)
发射日期:
2001-12-28 UTC
国别 :
俄罗斯(独联体) (CIS)
星等 :
--
Orbit Information
数据来源 国际轨道数据 AOE轨道数据
星历时间 2026-03-13T15:01:21+0800
20小时前
查看轨道信息
2026-03-10T16:00:00+0800
3天前
查看轨道信息
半长轴 7794.425km 7794.426km
偏心率 0.0000566 0.0000565
轨道倾角 82.540° 82.541°
近地点辐角 77.166° 60.161°
升交点赤经 275.565° 277.460°
平近点角 282.949° 186.182°
近地点 1415.846km 1415.848km
远地点 1416.73km 1416.73km
周期 114.139分钟 114.139分钟
每日圈数 12.616145 12.616143
Detailed Information
使用方式:
暂无
2D Orbit Map
3D Orbit Map
Orbit Altitude Analysis Chart
Orbit Inclination Analysis Chart
Orbit Comprehensive Analysis Chart
View Comprehensive Chart